DELTA 1 DEB

基本信息
目录编号:
3051
目录名称:
DELTA 1 DEB
国际标识:
1967-114C
轨道中心:
EARTH
物体状态:
在轨
发射日期:
1967-11-10 UTC
轨道信息
数据来源: 国际轨道数据
星历时间: 2026-07-13T16:41:47+0800
半长轴: 7791.63km
偏心率: 0.0090082
轨道倾角: 101.164°
近地点辐角: 66.081°
升交点赤经: 166.257°
平近点角: 93.933°
近地点: 1343.304km
远地点: 1483.682km
周期: 114.078分钟
每日圈数: 12.622935
详细信息
发射场:
AFWTR
轨道高度:
LEO
数据来源:
AOE Integration Group
参考系:
TEME
时间系统:
UTC
历元类型:
SGP4
2D轨道图
3D轨道图
轨道高度分析图
轨道倾角分析图
轨道综合分析图
查看轨道综合分析图